Tracking 35051 objects as of 17-Aug-2026
HD Live streaming from Space Station
objects crossing your sky now

ONEWEB-0637

Track ONEWEB-0637 now!
10-day predictions
ONEWEB-0637 is classified as:


NORAD ID: 56078
Int'l Code: 2023-043AJ
Launch date: March 26, 2023
Source: United Kingdom (UK)
Launch site: SRIHARIKOTA (SRI)
Your satellite tracking list
Your tracking list is empty




NASA's NSSDC Master Catalog

Two Line Element Set (TLE):
1 56078U 23043AJ  26229.50814073  .00000099  00000-0  22983-3 0  9992
2 56078  87.8956 246.9895 0001746  95.0185 265.1145 13.15549713164497
Source of the keplerian elements: AFSPC